Location: M�tteli
(46.5916°N, 8.5615°E)
Time: 05:42:23
(UTC+00:00)

Daily predictions for brighter satellites

Satellite Brightness Start Highest point End
(mag) Time Altitude Azimuth Time Altitude Azimuth Time Altitude Azimuth
SL-16 R/B 4.0 00:12:20 32° NNE 00:12:20 32° NNE 00:16:06 10° N
Cosmos 1943 Rocket 4.4 00:17:16 20° N 00:17:16 20° N 00:19:23 10° N
CZ-2D R/B 4.4 00:19:00 10° NNE 00:20:45 19° NE 00:20:45 19° NE
Cosmos 2297 Rocket 4.1 00:25:43 10° N 00:28:49 25° NNE 00:28:49 25° NNE
Resurs 1-4 Rocket 4.2 00:32:49 10° NNE 00:34:54 22° NE 00:34:54 22° NE
Cosmos 2369 Rocket 4.3 00:41:05 21° N 00:41:05 21° N 00:43:33 10° N
CZ-4C R/B 4.3 00:47:10 20° NNW 00:47:52 21° NNW 00:52:41 10° NNE
Cosmos 2227 Rocket 3.7 01:22:26 10° NNW 01:25:12 29° N 01:25:12 29° N
Lacrosse 5 3.9 01:32:48 22° E 01:32:48 22° E 01:35:08 10° ENE
USA 234 3.7 01:26:33 10° ESE 01:32:54 57° NNE 01:37:43 18° NW
ADEOS II 3.0 01:34:35 10° NNE 01:38:28 45° NE 01:38:28 45° NE
Cosmos 2181 Rocket 4.4 01:47:57 53° NNW 01:47:57 53° NNW 01:52:43 10° N
IDEFIX/ARIANE 42P 4.0 01:48:01 10° NNE 01:52:41 31° E 01:53:41 29° ESE
SL-16 R/B 4.1 01:57:25 23° NW 01:57:25 23° NW 01:59:49 10° NNW
ARIANE 5 R/B 3.3 01:56:55 10° NNE 02:01:50 46° E 02:01:50 46° E
IRS-1D 4.1 01:57:34 10° NNE 02:01:47 56° N 02:01:47 56° N
CZ-2D R/B 3.4 01:58:54 10° N 02:02:04 30° NNW 02:02:04 30° NNW
ATLAS 5 CENTAUR R/B 3.3 02:07:56 27° N 02:07:56 27° N 02:10:56 10° NNE
Cosmos 2297 Rocket 4.2 02:09:32 10° NW 02:10:32 15° NW 02:10:32 15° NW
Resurs 1-4 Rocket 3.6 02:12:58 10° N 02:15:58 26° NW 02:15:58 26° NW
Cosmos 2082 3.6 02:13:40 10° NNW 02:19:24 86° ENE 02:20:23 63° SE
USA 305 4.0 02:22:42 40° E 02:22:42 40° E 02:25:42 10° ENE
USA 306 3.9 02:26:37 44° E 02:26:37 44° E 02:29:48 10° ENE
X-37B 3.5 02:29:08 16° E 02:29:08 16° E 02:29:52 10° E
CZ-2D R/B 4.1 02:24:47 10° NNE 02:28:45 55° E 02:28:45 55° E
SJ 16-02 3.8 02:25:58 10° N 02:29:27 22° ENE 02:32:55 10° ESE
Meteor 1-25 Rocket 4.1 02:25:35 10° NNW 02:31:27 89° W 02:33:00 51° S
Cosmos 389 Rocket 4.1 02:32:19 32° E 02:32:19 32° E 02:35:17 10° NNE
Cosmos 1697 Rocket 2.5 02:32:33 74° SSW 02:33:07 88° ESE 02:38:46 10° NNE
ASTEX 1 3.7 02:29:59 10° NNE 02:34:58 65° E 02:36:23 45° SSE
IRS-P3 4.0 02:30:08 10° N 02:35:27 68° WNW 02:35:28 68° WNW
H-2A R/B 3.4 02:32:39 10° SE 02:36:43 40° ENE 02:40:53 10° N
Cosmos 1980 Rocket 2.8 02:35:19 37° SSE 02:37:16 53° ESE 02:42:47 10° NE
CZ-2C R/B 4.5 02:34:41 10° NE 02:38:58 26° E 02:43:16 10° SSE
USA 267 3.2 02:33:51 10° NE 02:40:23 74° NNW 02:42:17 49° WSW
ERS-1 4.4 02:40:03 10° N 02:45:11 74° WNW 02:45:42 67° WSW
NOSS 2-2 (E) 4.5 02:39:44 10° NW 02:45:31 81° SW 02:53:34 10° SSE
Cosmos 2263 Rocket 3.4 02:40:11 10° NNW 02:45:33 42° NE 02:50:54 10° SE
SL-8 R/B 3.6 02:46:01 70° NW 02:46:30 79° NNE 02:51:17 10° E
Meteor 1-14 Rocket 4.3 02:42:32 10° N 02:48:12 73° ENE 02:53:43 10° SSE
SL-16 R/B 4.5 02:46:37 10° SSE 02:50:43 21° E 02:54:50 10° NE
ATLAS 2AS CENTAUR R/B 4.5 02:44:43 10° NW 02:51:28 32° NNE 02:57:47 10° E
USA 307 2.8 02:52:25 84° SE 02:52:25 84° SE 02:56:41 10° ENE
NOSS 2-2 (D) 4.5 02:48:17 10° NW 02:53:56 83° SW 03:01:51 10° SSE
Cosmos 1821 Rocket 4.0 02:48:36 10° NNW 02:54:45 56° W 02:56:29 43° SW
USA 308 2.7 02:55:23 84° SSW 02:55:30 87° SE 02:59:46 10° ENE
Cosmos 1470 Rocket 3.8 02:51:44 10° NNW 02:55:25 53° NW 02:55:25 53° NW
Spot 4 Rocket 3.9 02:52:55 10° NNE 02:58:05 83° WNW 02:59:44 45° SSW
SL-24 R/B 4.4 02:59:50 52° W 02:59:50 52° W 03:04:36 10° NNW
Cosmos 1500 4.2 02:57:20 10° N 03:01:05 46° ENE 03:04:46 10° SSE
Landsat 5 3.7 03:00:11 10° SSE 03:04:41 77° ENE 03:09:12 10° N
Cosmos 1934 Rocket 3.8 03:03:48 10° NNW 03:09:50 71° W 03:15:52 10° S
Cosmos 1782 2.8 03:10:11 60° W 03:10:18 61° W 03:14:19 10° N
Cosmos 1777 Rocket 4.1 03:05:33 10° NNW 03:10:33 47° WSW 03:12:06 36° SSW
ERBS 4.4 03:09:57 18° SSE 03:10:57 20° SE 03:13:31 10° ENE
Cosmos 1238 Rocket 3.9 03:05:29 10° N 03:12:08 77° W 03:18:18 10° S
Lacrosse 5 1.9 03:12:00 44° W 03:13:29 67° NW 03:18:34 10° NE
ADEOS Rocket 3.8 03:08:34 10° SSE 03:15:16 58° ENE 03:21:20 10° N
CZ-4B R/B 3.8 03:12:56 10° SE 03:15:31 24° ENE 03:18:11 10° NNE
Cosmos 1515 Rocket 3.7 03:15:07 48° WSW 03:15:50 54° WNW 03:20:13 10° N
USA 234 3.2 03:09:31 10° SE 03:15:56 58° SW 03:22:23 10° WNW
CZ-2C R/B 2.6 03:14:02 10° N 03:17:47 70° WNW 03:18:32 53° SW
ADEOS II 3.4 03:15:07 10° NNW 03:19:06 22° WNW 03:19:23 22° WNW
Nadezhda 3 Rocket 4.4 03:18:39 33° WSW 03:20:28 40° WNW 03:26:15 10° N
USA 276 2.6 03:21:38 47° NW 03:21:59 50° N 03:25:08 10° ENE
Cosmos 972 Rocket 4.4 03:24:15 34° W 03:25:23 39° WNW 03:30:00 10° N
CSL-04 DEB 4.5 03:22:04 10° S 03:26:19 65° WSW 03:30:40 10° NNW
Cosmos 44 3.0 03:24:49 33° SSW 03:26:48 87° ESE 03:31:28 10° NE
Cosmos 1356 3.5 03:25:13 10° NNW 03:28:27 49° W 03:28:27 49° W
MSX 3.8 03:22:52 10° N 03:28:36 63° WNW 03:32:39 20° SSW
Timation 1 Rocket 4.4 03:24:18 10° NW 03:30:05 51° WSW 03:35:51 10° S
IRIDIUM 103 4.4 03:25:00 10° N 03:30:15 82° E 03:35:28 10° S
Cosmos 921 Rocket 3.0 03:27:48 20° SSW 03:30:38 79° ESE 03:34:49 10° NNE
Cosmos 2278 3.8 03:28:10 28° SW 03:31:04 59° WNW 03:36:44 10° NNE
IDEFIX/ARIANE 42P 3.1 03:27:26 10° N 03:32:20 40° WNW 03:34:28 28° WSW
Cosmos 1605 Rocket 4.0 03:26:16 10° NNW 03:32:39 74° W 03:39:01 10° S
Meteor 1-11 Rocket 4.3 03:27:00 10° N 03:32:47 64° ENE 03:38:24 10° SSE
Cosmos 1933 Rocket 4.1 03:29:24 10° NNW 03:33:24 36° W 03:34:18 32° WSW
Cosmos 2228 Rocket 3.0 03:31:12 22° SSW 03:33:58 67° W 03:38:23 10° N
CZ-3B R/B 3.3 03:32:05 22° WNW 03:34:03 40° N 03:43:32 10° ENE
Cosmos 2369 4.4 03:36:41 25° W 03:39:11 37° NW 03:44:31 10° NNE
ARIANE 5 R/B 3.6 03:36:30 10° N 03:40:42 26° WNW 03:42:10 23° W
CZ-4C R/B 3.7 03:42:39 30° SW 03:43:32 34° W 03:46:51 10° NNW
Cosmos 1937 Rocket 4.4 03:38:32 10° NNW 03:43:35 52° ENE 03:48:35 10° SE
Meteor 1-27 Rocket 4.4 03:41:30 10° S 03:47:21 63° E 03:53:12 10° NNE
Cosmos 1733 Rocket 4.4 03:43:23 10° N 03:47:34 42° ENE 03:51:41 10° SSE
ALOS 3.6 03:43:09 10° NNE 03:47:36 42° E 03:52:00 10° S
IRIDIUM 106 4.2 03:43:22 10° N 03:48:34 70° W 03:53:45 10° S
Cosmos 1536 3.5 03:47:19 10° N 03:51:22 59° ENE 03:55:23 10° SSE
Cosmos 1869 Rocket 3.6 03:48:13 10° NNW 03:52:29 56° W 03:56:42 10° S
ATLAS 5 CENTAUR R/B 4.0 03:50:45 10° NW 03:52:55 13° N 03:55:14 10° NNE
GENESIS II 4.3 03:51:47 16° SSW 03:54:58 82° SE 03:59:02 10° NE
Meteor 1-4 Rocket 2.3 03:52:47 10° SSW 03:56:13 75° W 03:59:45 10° N
Cosmos 1484 Rocket 3.8 03:52:33 10° NNE 03:56:26 51° E 04:00:20 10° S
USA 305 3.6 03:58:51 18° W 04:01:41 43° NNW 04:05:46 10° NE
X-37B 0.7 04:01:25 22° W 04:03:14 61° S 04:06:24 10° ESE
Cosmos 1689 Rocket 3.7 04:01:06 10° SE 04:03:53 38° ENE 04:06:41 10° N
USA 306 3.6 04:02:46 17° W 04:05:46 42° NNW 04:09:51 10° NE
Cosmos 1727 Rocket 4.0 04:00:15 10° SSW 04:06:35 71° W 04:12:55 10° N
Cosmos 1763 Rocket 3.6 04:01:18 10° SSW 04:06:38 85° ESE 04:11:58 10° NNE
Cosmos 389 Rocket 4.1 04:06:11 16° W 04:06:53 17° WNW 04:09:19 10° NNW
Meteor 1-31 Rocket 3.6 04:03:28 10° NNE 04:07:13 54° E 04:10:58 10° S
Cosmos 2100 Rocket 4.1 04:00:52 10° N 04:07:17 85° E 04:13:40 10° S
SJ 16-02 1.6 04:04:03 10° NNW 04:08:13 43° WSW 04:12:22 10° S
Cosmos 1802 Rocket 4.4 04:03:26 10° N 04:09:36 68° E 04:15:49 10° SSE
PSLV R/B 3.9 04:05:44 10° N 04:09:43 41° WNW 04:13:39 10° SW
Cosmos 2360 Rocket 3.6 04:06:04 10° S 04:11:19 40° ESE 04:16:34 10° NE
H-2A R/B 3.2 04:09:22 10° SSW 04:12:49 23° W 04:16:22 10° NW
ERS-2 2.9 04:10:24 10° SSW 04:13:38 29° W 04:16:53 10° NW
CZ-2C R/B 2.9 04:12:30 10° N 04:17:21 45° WNW 04:22:15 10° SW
Cosmos 1697 Rocket 4.2 04:14:18 12° W 04:17:52 20° NW 04:21:55 10° N
NOSS 3-4 (A) 4.1 04:12:23 10° NW 04:19:22 77° NE 04:27:07 10° SE
NOSS 3-4 (C) 4.1 04:12:30 10° NW 04:19:28 76° NE 04:27:13 10° SE
Gbstr 26 Del rocket 4.4 04:12:11 10° WNW 04:20:12 74° SW 04:27:11 10° SE
PAYLOAD A 4.5 04:16:35 10° N 04:20:51 35° WNW 04:25:05 10° SW
Cosmos 1980 Rocket 3.2 04:17:07 12° WSW 04:21:33 29° NW 04:26:30 10° N
METEOR-M 4.4 04:16:22 10° NNE 04:21:45 74° ESE 04:27:06 10° S
USA 267 4.1 04:16:54 10° NE 04:22:54 40° NNW 04:28:52 10° WNW
FENGYUN 3A 3.7 04:19:40 10° NNE 04:25:06 88° WNW 04:30:30 10° SSW
Cosmos 2322 Rocket 2.3 04:20:51 10° SSW 04:26:33 89° WNW 04:32:17 10° NNE
Cosmos 990 Rocket 4.3 04:22:58 10° NNW 04:27:54 45° WSW 04:32:50 10° S
NOSS 3-3 (A) 4.2 04:22:55 10° WSW 04:28:40 56° NW 04:35:15 10° NE
NOSS 3-3 (C) 4.2 04:23:05 10° WSW 04:28:47 56° NW 04:35:19 10° NE
SL-8 R/B 4.1 04:24:22 10° WNW 04:28:54 45° SSW 04:33:26 10° SE
Cosmos 1459 Rocket 3.9 04:22:55 10° NNW 04:29:01 73° W 04:35:02 10° S
Cosmos 2263 Rocket 2.8 04:24:19 10° NW 04:29:23 35° WSW 04:34:26 10° S
CZ-4C R/B 4.3 04:23:05 10° NNW 04:29:28 38° NE 04:36:49 10° ESE
Cosmos 1812 4.0 04:28:06 10° WSW 04:31:08 22° WNW 04:34:11 10° NNW
Cosmos 468 Rocket 4.2 04:26:09 10° SW 04:31:20 55° WNW 04:36:32 10° NNE
USA 307 4.0 04:28:52 10° W 04:32:48 35° NNW 04:36:45 10° NE
SL-16 R/B 2.3 04:28:39 10° SW 04:34:16 66° WNW 04:39:57 10° NNE
COSMO-SKYMED 1 2.7 04:31:03 10° SSE 04:35:23 85° ENE 04:39:46 10° NNW
USA 308 4.0 04:32:00 10° W 04:35:55 35° NNW 04:39:51 10° NE
Cosmos 1844 Rocket 3.2 04:30:55 10° NNW 04:36:33 65° ENE 04:42:09 10° SE
SL-4 R/B 3.1 04:34:38 10° SW 04:39:08 52° SE 04:43:50 10° ENE
Cosmos 540 Rocket 3.6 04:34:43 10° SSW 04:39:53 85° ESE 04:45:06 10° NNE
Cosmos 44 Rocket 4.1 04:36:53 10° SSW 04:41:29 55° ESE 04:46:13 10° NE
ATLAS CENTAUR R/B 3.5 04:33:23 10° NW 04:42:13 50° NNE 04:45:51 10° E
ATLAS 2AS CENTAUR R/B 3.0 04:35:54 10° NW 04:43:30 86° NE 04:50:25 10° SE
